[[{"header":{"parameterUnit":"m.s-1","parameterCategory":1,"la1":30.2991,"la2":30.254,"lo1":-89.0895,"lo2":-89.0444,"dy":0.0017,"dx":0.0017,"nx":28,"ny":28,"refTime":"2026-02-14T09:00:00:Z","depth":0,"parameterNumber":2,"parameterNumberName":"U-component_of_WINDS"},"data":[0,0,0,0,0,0,0,0,0,0,0,0,0,0,0,0,0,0,0,0,0,0,0,0,0,0,0,0,0,0,0,0,0,0,0,0,0,0,0,0,0,0,0,0,0,0,0,0,0,0,0,0,0,0,0,0,0,0,5.9833,5.9834,0,5.9905,5.9906,5.9907,5.9822,5.9819,5.9816,5.9813,5.9891,5.9896,5.9901,0,0,0,0,0,0,0,0,0,0,0,0,0,5.9629,5.9634,5.9833,5.9834,5.9835,5.9905,5.9906,5.9907,5.9823,5.9819,5.9815,5.9812,5.989,5.9896,5.9902,0,0,0,0,0,0,0,0,0,0,0,0,0,5.9712,5.9635,5.9833,5.9801,5.9799,5.9905,5.9906,5.9907,5.9824,5.9819,5.9814,5.981,5.9888,5.9895,5.9903,6.0044,0,0,5.9926,5.9929,0,0,0,0,0,0,0,0,5.9707,5.9719,5.9805,5.9804,5.9801,5.985,5.9863,5.9954,5.9825,5.9815,5.9813,5.9808,5.9882,5.9889,5.9914,6.0048,6.0051,5.9926,5.9931,5.9934,5.9936,0,0,0,0,0,0,0,5.9701,5.9716,5.9862,5.9806,5.9804,5.9786,5.9792,5.988,5.9874,5.9815,5.9809,5.9819,5.988,5.9906,5.9915,6.0052,5.9926,5.9933,5.9937,5.994,6.0311,6.0316,0,0,0,0,0,0,5.9699,5.9711,5.9859,5.9864,5.9741,5.9793,5.98,5.9839,5.9873,5.9873,5.9823,5.9814,5.9896,5.9906,5.9917,6.0087,5.9934,5.9941,5.9945,6.0306,6.0312,6.0318,0,0,0,0,0,0,5.9694,5.9712,5.9856,5.9786,5.9803,5.9802,5.9846,5.9843,5.9869,5.9878,5.9878,5.985,5.9893,5.9907,6.0014,6.0089,5.9945,5.9951,6.03,6.0308,6.0315,6.0428,0,0,0,0,0,0,5.9689,5.9711,5.9763,5.9788,5.9807,5.995,5.9851,5.9848,5.9882,5.9872,5.9904,5.9905,5.989,6.0003,6.0022,6.0097,5.9957,6.0293,6.0303,6.0313,6.0417,6.0438,6.0457,0,0,0,0,0,5.9682,5.9792,5.9766,5.9784,5.9871,5.9954,5.9966,5.9945,5.9889,5.9942,5.9949,5.9904,6.0078,6.0015,6.0035,6.0113,6.0288,6.03,6.0312,6.0408,6.0434,6.0456,0,0,0,0,0,0,5.9776,5.9794,5.9766,5.9887,5.992,5.994,6.0006,5.9972,6.0022,6.0011,5.9985,5.9993,6.0108,6.0121,6.005,6.0255,6.0174,6.0191,6.0241,6.0265,6.0285,6.0279,5.9964,0,0,0,0,0,5.9811,5.9875,5.9888,5.9994,6.0012,6.0007,6.0042,6.0024,6.0057,6.0071,6.0085,6.0121,6.0184,6.0225,6.0284,6.042,6.0427,6.0484,6.0504,6.052,6.0534,6.061,6.0636,6.0358,6.0357,6.0357,0,0,5.9883,5.9901,5.9943,6.0013,6.0036,6.0106,6.0019,6.0095,6.0147,6.0083,6.0184,6.0197,6.0236,6.0359,6.0414,6.0374,6.0613,6.0535,6.0548,6.0553,6.0625,6.0652,6.0675,6.0366,6.0364,6.0363,0,0,6.005,6.007,6.0161,6.0187,6.0224,6.0221,6.0243,6.027,6.0275,6.0378,6.0332,6.0395,6.0503,6.0533,6.0563,6.0748,6.071,6.0768,6.087,6.0945,6.0967,6.0986,6.1053,6.1078,6.0783,6.0783,6.0783,0,6.0136,6.0236,6.0212,6.0293,6.0327,6.0273,6.0367,6.0394,6.0449,6.0474,6.0429,6.0566,6.0588,6.0719,6.0764,6.079,6.0816,6.0763,6.0965,6.0984,6.1002,6.1066,6.1091,6.079,6.0789,6.0788,6.0788,0,6.0341,6.0412,6.0482,6.0536,6.0578,6.0665,6.0657,6.0703,6.0683,6.0686,6.0793,6.0818,6.0882,6.0912,6.0892,6.1042,6.1016,6.0969,6.0887,6.1036,6.1096,6.112,6.08,6.0797,6.0795,6.0793,0,0,6.0564,6.0608,6.0634,6.066,6.0699,6.0755,6.0842,6.0904,6.0945,6.0986,6.1059,6.1155,6.1113,6.1146,6.1131,6.1196,6.1344,6.1141,6.1142,6.1178,6.1512,6.1546,6.1575,6.1319,6.1324,6.1328,6.1509,0,6.0733,6.0881,6.0865,6.1007,6.1075,6.1028,6.1104,6.1138,6.1144,6.1204,6.1212,6.128,6.1219,6.1239,6.1302,6.1312,6.141,6.1299,6.1389,6.1392,6.1379,6.1606,6.1642,6.1811,6.1532,6.1536,6.1538,0,6.0947,6.0997,6.1146,6.1179,6.1207,6.1275,6.1333,6.1391,6.143,6.143,6.1471,6.1445,6.1536,6.1454,6.158,6.1505,6.1541,6.1553,6.1559,6.1565,6.1473,6.1618,6.1864,6.189,6.1575,6.1572,6.1569,0,6.1097,6.1201,6.1305,6.1328,6.1369,6.1419,6.1438,6.1473,6.1513,6.1565,6.1591,6.1653,6.1687,6.1736,6.1729,6.167,6.1858,6.1775,6.1862,6.1863,6.1902,6.1899,6.2157,6.1927,6.1927,6.1926,6.1926,0,6.1285,6.1379,6.1373,6.1436,6.1541,6.1524,6.1629,6.1643,6.1676,6.1743,6.1707,6.1771,6.1758,6.1824,6.1819,6.1925,6.1941,6.1945,6.1942,6.1947,6.1947,6.197,6.1957,6.1933,6.1932,6.193,6.1929,0,6.1468,6.1468,6.1578,6.1609,6.1619,6.1695,6.1723,6.1784,6.179,6.1876,6.1895,6.1904,6.1979,6.1978,6.2063,6.2061,6.2191,6.2175,6.2177,6.2173,6.226,6.2252,6.254,6.2578,6.2325,6.2327,6.2329,0,6.1588,6.1659,6.1699,6.1741,6.1764,6.1833,6.1874,6.1863,6.1907,6.1961,6.2017,6.2089,6.2145,6.2269,6.2283,6.235,6.2335,6.2432,6.2345,6.2349,6.2337,6.2332,6.234,6.2448,6.2451,6.2454,6.2455,0,6.1801,6.1798,6.1858,6.192,6.1971,6.2019,6.2063,6.2101,6.2094,6.2147,6.2224,6.2268,6.2357,6.243,6.2495,6.2517,6.2486,6.2484,6.2507,6.2512,6.251,6.2513,6.2223,6.2476,6.2474,6.2473,6.2471,6.2471,6.1955,6.2018,6.2056,6.2126,6.2159,6.2202,6.2262,6.2277,6.234,6.2411,6.2401,6.2488,6.253,6.2614,6.2642,6.2711,6.2677,6.2711,6.2719,6.2728,6.2737,6.2501,6.2723,6.2722,6.2722,6.2721,6.2721,0,6.2166,6.219,6.2255,6.2319,6.2375,6.2342,6.2391,6.244,6.2516,6.2558,6.2616,6.2706,6.2778,6.28,6.287,6.2921,6.2909,6.294,6.2935,6.2941,6.2764,6.2736,6.2949,6.2949,6.2949,6.2949,6.2949,6.2948,6.2282,6.2387,6.239,6.2512,6.2536,6.262,6.2651,6.2692,6.2725,6.2828,6.2887,6.2902,6.2937,6.301,6.3075,6.308,6.3107,6.3144,6.3143,6.2976,6.2954,6.2932,6.2906,6.315,6.3151,6.3315,6.3317,6.3318]},{"header":{"parameterUnit":"m.s-1","parameterCategory":1,"la1":30.2991,"la2":30.254,"lo1":-89.0895,"lo2":-89.0444,"dy":0.0017,"dx":0.0017,"nx":28,"ny":28,"refTime":"2026-02-14T09:00:00:Z","depth":0,"parameterNumber":3,"parameterNumberName":"V-component_of_WINDS"},"data":[0,0,0,0,0,0,0,0,0,0,0,0,0,0,0,0,0,0,0,0,0,0,0,0,0,0,0,0,0,0,0,0,0,0,0,0,0,0,0,0,0,0,0,0,0,0,0,0,0,0,0,0,0,0,0,0,0,0,5.0667,5.067,0,5.0972,5.0976,5.0979,5.1095,5.1094,5.1093,5.1092,5.1403,5.1411,5.142,0,0,0,0,0,0,0,0,0,0,0,0,0,5.0181,5.019,5.0667,5.0671,5.0674,5.0971,5.0976,5.098,5.1095,5.1094,5.1093,5.1092,5.14,5.141,5.1421,0,0,0,0,0,0,0,0,0,0,0,0,0,5.043,5.0192,5.0666,5.0768,5.078,5.0971,5.0976,5.0981,5.1095,5.1094,5.1093,5.1092,5.1396,5.1409,5.1423,5.1534,0,0,5.1464,5.147,0,0,0,0,0,0,0,0,5.0415,5.0447,5.0749,5.0761,5.0775,5.0994,5.0918,5.1166,5.1096,5.0976,5.1092,5.1091,5.1268,5.1292,5.1352,5.1548,5.1562,5.1466,5.1474,5.148,5.1484,0,0,0,0,0,0,0,5.0398,5.0435,5.0788,5.0753,5.0769,5.0797,5.0831,5.0966,5.1125,5.0986,5.0995,5.103,5.1274,5.1338,5.136,5.1566,5.1465,5.1477,5.1486,5.1491,5.1869,5.187,0,0,0,0,0,0,5.0364,5.042,5.0778,5.0797,5.0588,5.0807,5.0845,5.0925,5.1124,5.1153,5.1031,5.1034,5.1316,5.1344,5.1371,5.1515,5.148,5.1492,5.15,5.1867,5.1869,5.1871,0,0,0,0,0,0,5.0353,5.0395,5.0766,5.0611,5.066,5.0817,5.0906,5.0932,5.0996,5.1158,5.1187,5.1067,5.1316,5.1352,5.1493,5.1527,5.1499,5.1511,5.1865,5.1868,5.187,5.1802,0,0,0,0,0,0,5.0339,5.0391,5.0435,5.0611,5.0668,5.0882,5.0908,5.0939,5.102,5.1027,5.12,5.1227,5.1318,5.1472,5.1506,5.1545,5.1522,5.1862,5.1866,5.1869,5.1802,5.1802,5.1802,0,0,0,0,0,5.0321,5.0403,5.0437,5.0479,5.0727,5.0884,5.0917,5.102,5.1022,5.1068,5.1171,5.1221,5.1517,5.1485,5.1525,5.1569,5.1861,5.1865,5.1869,5.1802,5.1802,5.1802,0,0,0,0,0,0,5.0227,5.0428,5.0468,5.0609,5.0729,5.0903,5.0964,5.1017,5.1138,5.114,5.1262,5.13,5.143,5.1514,5.1474,5.1686,5.1692,5.1705,5.1627,5.1629,5.1629,5.1607,5.1533,0,0,0,0,0,5.0222,5.0334,5.0504,5.0612,5.067,5.0806,5.0879,5.0948,5.1076,5.1127,5.1242,5.1363,5.1484,5.1561,5.1681,5.1814,5.1853,5.1863,5.1863,5.1863,5.1872,5.1948,5.1955,5.1885,5.1885,5.1885,0,0,5.0214,5.0338,5.0401,5.0596,5.0697,5.0809,5.0848,5.0965,5.1049,5.1145,5.1285,5.1373,5.1517,5.1654,5.172,5.1727,5.19,5.1868,5.1866,5.1877,5.1953,5.196,5.1965,5.1888,5.1887,5.1887,0,0,5.0257,5.0362,5.0464,5.0565,5.0717,5.0807,5.0831,5.0998,5.106,5.1203,5.1277,5.1378,5.1583,5.1683,5.176,5.184,5.189,5.1875,5.1876,5.1949,5.1954,5.196,5.1988,5.1997,5.1884,5.1883,5.1883,0,5.0228,5.0401,5.051,5.0623,5.0707,5.0799,5.0902,5.0994,5.1177,5.1231,5.1237,5.1496,5.16,5.1761,5.178,5.184,5.1871,5.1856,5.1945,5.1952,5.1958,5.1987,5.1997,5.1881,5.1881,5.1881,5.1882,0,5.0358,5.0476,5.054,5.0715,5.0806,5.0913,5.1037,5.1115,5.1176,5.1265,5.1408,5.1535,5.1683,5.1726,5.1786,5.1896,5.1896,5.1921,5.193,5.196,5.1989,5.2001,5.1877,5.1878,5.1879,5.1879,0,0,5.0351,5.0584,5.0606,5.0687,5.0861,5.0954,5.1065,5.121,5.1274,5.1397,5.1493,5.1664,5.1689,5.1776,5.1849,5.1912,5.1967,5.1931,5.1936,5.1933,5.2095,5.2075,5.2086,5.2001,5.2003,5.2005,5.2083,0,5.0417,5.0622,5.0722,5.0882,5.0993,5.1081,5.1178,5.1295,5.138,5.1486,5.158,5.1699,5.1723,5.1777,5.1843,5.1946,5.2001,5.1941,5.2091,5.2095,5.2053,5.2101,5.2081,5.2148,5.2095,5.2097,5.2098,0,5.0522,5.0645,5.0816,5.0978,5.1028,5.1113,5.1254,5.1353,5.1487,5.1545,5.1642,5.1712,5.1831,5.183,5.1996,5.1953,5.202,5.2079,5.2084,5.2103,5.2099,5.2121,5.2172,5.2182,5.2117,5.2116,5.2114,0,5.05,5.0708,5.0838,5.0904,5.1095,5.1153,5.1235,5.1368,5.1448,5.157,5.1623,5.1757,5.183,5.1931,5.2035,5.2025,5.219,5.2198,5.2241,5.2239,5.2273,5.227,5.2336,5.2315,5.2314,5.2314,5.2314,0,5.0564,5.0666,5.0831,5.091,5.1026,5.114,5.1251,5.134,5.1457,5.1554,5.1638,5.1727,5.1859,5.1965,5.2046,5.2171,5.2203,5.2253,5.2273,5.2246,5.2239,5.2292,5.229,5.2317,5.2316,5.2316,5.2315,0,5.056,5.0674,5.0822,5.099,5.1035,5.1113,5.1257,5.1337,5.1426,5.1549,5.1584,5.1724,5.1853,5.1966,5.2136,5.2191,5.2318,5.2344,5.2274,5.2285,5.2322,5.2317,5.2424,5.2444,5.2408,5.2408,5.2408,0,5.0594,5.0674,5.0851,5.0923,5.1004,5.1119,5.1201,5.1316,5.1398,5.1556,5.1616,5.1751,5.1865,5.2066,5.2183,5.2313,5.2342,5.2371,5.2362,5.2332,5.2343,5.2337,5.2346,5.237,5.237,5.237,5.237,0,5.0641,5.0694,5.081,5.0946,5.1043,5.1155,5.127,5.1323,5.1459,5.1547,5.168,5.1768,5.1942,5.2075,5.2218,5.2301,5.2358,5.2371,5.2389,5.2362,5.2318,5.2342,5.2273,5.2369,5.2369,5.2369,5.2369,5.2369,5.0658,5.0733,5.087,5.0996,5.1095,5.12,5.1283,5.1383,5.1497,5.1648,5.1708,5.1843,5.1974,5.2172,5.2255,5.2361,5.2372,5.2396,5.2402,5.2407,5.2402,5.23,5.2388,5.2388,5.2388,5.2388,5.2388,0,5.071,5.0802,5.0918,5.1076,5.1175,5.122,5.1349,5.1429,5.1547,5.1665,5.1776,5.1928,5.2057,5.2182,5.2318,5.2379,5.2408,5.241,5.2407,5.2425,5.2385,5.2357,5.2384,5.2384,5.2384,5.2384,5.2384,5.2384,5.0749,5.0879,5.0947,5.1126,5.1218,5.1352,5.1422,5.1519,5.1613,5.178,5.1888,5.1969,5.209,5.2234,5.2354,5.2388,5.2434,5.2429,5.2469,5.2429,5.2428,5.2427,5.2402,5.2437,5.2438,5.2501,5.2501,5.2502]}]]